Time,TemperatureF,DewpointF,PressureIn,WindDirection,WindDirectionDegrees,WindSpeedMPH,WindSpeedGustMPH,Humidity,HourlyPrecipIn,Conditions,Clouds,dailyrainin,SoftwareType,DateUTC
2013-06-27 00:03:00,60.0,-41.1,29.85,NE,45,1.0,6.0,1,0.00,,,0.00,Weather View 32 v70,2013-06-27 04:03:00,
2013-06-27 00:32:00,60.0,-41.1,29.86,ESE,112,2.0,7.0,1,0.00,,,0.00,Weather View 32 v70,2013-06-27 04:32:00,
2013-06-27 01:05:00,59.0,-41.7,29.86,ESE,112,6.0,9.0,1,0.00,,,0.00,Weather View 32 v70,2013-06-27 05:05:00,
2013-06-27 01:32:00,59.0,-41.7,29.86,South,180,1.0,9.0,1,0.00,,,0.00,Weather View 32 v70,2013-06-27 05:32:00,
2013-06-27 02:02:00,58.0,-42.3,29.86,ESE,112,6.0,9.0,1,0.00,,,0.00,Weather View 32 v70,2013-06-27 06:02:00,
2013-06-27 02:08:00,58.0,-42.3,29.86,ESE,112,6.0,9.0,1,0.00,,,0.00,Weather View 32 v70,2013-06-27 06:08:00,
2013-06-27 02:35:00,57.0,-42.9,29.86,SSE,157,5.0,9.0,1,0.00,,,0.00,Weather View 32 v70,2013-06-27 06:35:00,
2013-06-27 03:00:00,57.0,-42.9,29.86,South,180,6.0,9.0,1,0.00,,,0.00,Weather View 32 v70,2013-06-27 07:00:00,
2013-06-27 03:01:00,57.0,-42.9,29.86,South,180,6.0,9.0,1,0.00,,,0.00,Weather View 32 v70,2013-06-27 07:01:00,
2013-06-27 03:31:00,56.0,-43.5,29.86,SSE,157,7.0,10.0,1,0.00,,,0.00,Weather View 32 v70,2013-06-27 07:31:00,
2013-06-27 04:00:00,56.0,-43.5,29.85,South,180,10.0,11.0,1,0.00,,,0.00,Weather View 32 v70,2013-06-27 08:00:00,
2013-06-27 04:02:00,56.0,-43.5,29.85,South,180,10.0,11.0,1,0.00,,,0.00,Weather View 32 v70,2013-06-27 08:02:00,
2013-06-27 04:31:00,56.0,-43.5,29.86,ESE,112,8.0,13.0,1,0.00,,,0.00,Weather View 32 v70,2013-06-27 08:31:00,
2013-06-27 05:00:00,56.0,-43.5,29.86,SSE,157,6.0,13.0,1,0.00,,,0.00,Weather View 32 v70,2013-06-27 09:00:00,
2013-06-27 05:04:00,56.0,-43.5,29.86,SSE,157,6.0,13.0,1,0.00,,,0.00,Weather View 32 v70,2013-06-27 09:04:00,
2013-06-27 05:35:00,55.0,-44.1,29.86,SSE,157,7.0,12.0,1,0.00,,,0.00,Weather View 32 v70,2013-06-27 09:35:00,
2013-06-27 06:00:00,55.0,-44.1,29.87,SSE,157,6.0,11.0,1,0.00,,,0.00,Weather View 32 v70,2013-06-27 10:00:00,
2013-06-27 06:04:00,55.0,-44.1,29.87,SSE,157,6.0,11.0,1,0.00,,,0.00,Weather View 32 v70,2013-06-27 10:04:00,
2013-06-27 06:31:00,55.0,-44.1,29.87,SSE,157,7.0,11.0,1,0.00,,,0.00,Weather View 32 v70,2013-06-27 10:31:00,
2013-06-27 07:00:00,55.0,-44.1,29.86,SE,135,7.0,11.0,1,0.00,,,0.00,Weather View 32 v70,2013-06-27 11:00:00,
2013-06-27 07:35:00,54.0,-44.7,29.88,South,180,6.0,12.0,1,0.00,,,0.00,Weather View 32 v70,2013-06-27 11:35:00,
2013-06-27 08:04:00,54.0,-44.7,29.89,SE,135,12.0,15.0,1,0.00,,,0.00,Weather View 32 v70,2013-06-27 12:04:00,
2013-06-27 08:34:00,54.0,-44.7,29.89,ESE,112,6.0,15.0,1,0.00,,,0.00,Weather View 32 v70,2013-06-27 12:34:00,
2013-06-27 09:03:00,54.0,-44.7,29.89,East,90,2.0,14.0,1,0.00,,,0.00,Weather View 32 v70,2013-06-27 13:03:00,
2013-06-27 09:36:00,54.0,-44.7,29.90,SE,135,3.0,12.0,1,0.00,,,0.00,Weather View 32 v70,2013-06-27 13:36:00,
2013-06-27 10:00:00,54.0,-44.7,29.90,East,90,3.0,9.0,1,0.00,,,0.00,Weather View 32 v70,2013-06-27 14:00:00,
2013-06-27 10:33:00,54.0,-44.7,29.89,SSE,157,2.0,12.0,1,0.00,,,0.00,Weather View 32 v70,2013-06-27 14:33:00,
2013-06-27 10:39:00,54.0,-44.7,29.89,SSE,157,2.0,12.0,1,0.00,,,0.00,Weather View 32 v70,2013-06-27 14:39:00,
2013-06-27 11:02:00,55.0,-44.1,29.89,ESE,112,5.0,12.0,1,0.00,,,0.00,Weather View 32 v70,2013-06-27 15:02:00,
2013-06-27 11:30:00,56.0,-43.5,29.88,ESE,112,8.0,10.0,1,0.00,,,0.00,Weather View 32 v70,2013-06-27 15:30:00,
2013-06-27 11:33:00,56.0,-43.5,29.88,ESE,112,8.0,10.0,1,0.00,,,0.00,Weather View 32 v70,2013-06-27 15:33:00,
2013-06-27 12:03:00,56.0,-43.5,29.88,East,90,3.0,11.0,1,0.00,,,0.00,Weather View 32 v70,2013-06-27 16:03:00,
2013-06-27 12:30:00,58.0,-42.3,29.87,ESE,112,1.0,12.0,1,0.00,,,0.00,Weather View 32 v70,2013-06-27 16:30:00,
2013-06-27 12:32:00,58.0,-42.3,29.87,ESE,112,1.0,12.0,1,0.00,,,0.00,Weather View 32 v70,2013-06-27 16:32:00,
2013-06-27 13:01:00,57.0,-42.9,29.87,ESE,112,3.0,12.0,1,0.00,,,0.00,Weather View 32 v70,2013-06-27 17:01:00,
2013-06-27 13:30:00,58.0,-42.3,29.87,SE,135,2.0,11.0,1,0.00,,,0.00,Weather View 32 v70,2013-06-27 17:30:00,
2013-06-27 13:35:00,58.0,-42.3,29.87,SE,135,2.0,11.0,1,0.00,,,0.00,Weather View 32 v70,2013-06-27 17:35:00,
2013-06-27 14:02:00,59.0,-41.7,29.87,ESE,112,4.0,12.0,1,0.00,,,0.00,Weather View 32 v70,2013-06-27 18:02:00,
2013-06-27 14:30:00,58.0,-42.3,29.88,SE,135,3.0,12.0,1,0.00,,,0.00,Weather View 32 v70,2013-06-27 18:30:00,
2013-06-27 14:35:00,58.0,-42.3,29.88,SE,135,3.0,12.0,1,0.00,,,0.00,Weather View 32 v70,2013-06-27 18:35:00,
2013-06-27 15:04:00,58.0,-42.3,29.86,ESE,112,6.0,12.0,1,0.00,,,0.00,Weather View 32 v70,2013-06-27 19:04:00,
2013-06-27 15:30:00,58.0,-42.3,29.86,East,90,6.0,11.0,1,0.00,,,0.00,Weather View 32 v70,2013-06-27 19:30:00,
2013-06-27 15:31:00,58.0,-42.3,29.86,East,90,6.0,11.0,1,0.00,,,0.00,Weather View 32 v70,2013-06-27 19:31:00,
2013-06-27 16:01:00,57.0,-42.9,29.86,South,180,6.0,12.0,1,0.00,,,0.00,Weather View 32 v70,2013-06-27 20:01:00,
2013-06-27 16:30:00,57.0,-42.9,29.87,ESE,112,6.0,12.0,1,0.00,,,0.00,Weather View 32 v70,2013-06-27 20:30:00,
2013-06-27 16:33:00,57.0,-42.9,29.87,ESE,112,6.0,12.0,1,0.00,,,0.00,Weather View 32 v70,2013-06-27 20:33:00,
2013-06-27 17:00:00,57.0,-42.9,29.86,SSE,157,2.0,9.0,1,0.00,,,0.00,Weather View 32 v70,2013-06-27 21:00:00,
2013-06-27 18:02:00,57.0,-42.9,29.86,SE,135,3.0,10.0,1,0.00,,,0.00,Weather View 32 v70,2013-06-27 22:02:00,
2013-06-27 19:01:00,56.0,-43.5,29.87,ESE,112,0.0,8.0,1,0.00,,,0.00,Weather View 32 v70,2013-06-27 23:01:00,
2013-06-27 19:31:00,57.0,-42.9,29.86,ENE,67,1.0,8.0,1,0.00,,,0.00,Weather View 32 v70,2013-06-27 23:31:00,
2013-06-27 20:02:00,57.0,-42.9,29.86,ESE,112,1.0,7.0,1,0.00,,,0.00,Weather View 32 v70,2013-06-28 00:02:00,
2013-06-27 20:32:00,57.0,-42.9,29.86,NNE,22,6.0,9.0,1,0.00,,,0.00,Weather View 32 v70,2013-06-28 00:32:00,
2013-06-27 21:02:00,57.0,-42.9,29.88,ENE,67,5.0,9.0,1,0.00,,,0.00,Weather View 32 v70,2013-06-28 01:02:00,
2013-06-27 21:08:00,57.0,-42.9,29.88,ENE,67,5.0,9.0,1,0.00,,,0.00,Weather View 32 v70,2013-06-28 01:08:00,
2013-06-27 21:34:00,56.0,-43.5,29.89,NE,45,1.0,9.0,1,0.00,,,0.00,Weather View 32 v70,2013-06-28 01:34:00,
2013-06-27 22:00:00,56.0,-43.5,29.89,East,90,2.0,11.0,1,0.00,,,0.00,Weather View 32 v70,2013-06-28 02:00:00,
2013-06-27 22:03:00,56.0,-43.5,29.89,East,90,2.0,11.0,1,0.00,,,0.00,Weather View 32 v70,2013-06-28 02:03:00,
2013-06-27 22:31:00,56.0,-43.5,29.89,NE,45,3.0,11.0,1,0.00,,,0.00,Weather View 32 v70,2013-06-28 02:31:00,
2013-06-27 23:00:00,56.0,-43.5,29.89,North,360,3.0,11.0,1,0.00,,,0.00,Weather View 32 v70,2013-06-28 03:00:00,
2013-06-27 23:02:00,56.0,-43.5,29.89,North,360,3.0,11.0,1,0.00,,,0.00,Weather View 32 v70,2013-06-28 03:02:00,